Regional Weather Roundup
Issued by NWS

Home | Current Version | Previous Version | Text Only | Print | Product List | Glossary On
Versions: 1 2 3 4 5 6 7 8 9 10 11 12 13 14 15 16 17 18 19 20 21 22 23 24 25 26 27 28 29 30 31 32 33 34 35 36 37 38 39 40 41 42 43 44 45 46 47 48 49 50
000
ASHW40 PHFO 291543
RWRHI

WEATHER ROUNDUP FOR HAWAII
NATIONAL WEATHER SERVICE HONOLULU HI
500 AM HST MON MAY 29 2017

THIS IS AN AUTOMATED REPORT THAT HAS NOT BEEN QUALITY CONTROLLED.

NOTE..."FAIR" INDICATES FEW OR NO CLOUDS BELOW 12,000 FEET WITH NO
SIGNIFICANT WEATHER AND/OR OBSTRUCTIONS TO VISIBILITY.

* - THESE SITES REPORT LIMITED FIELDS

HIZ001>004-291600-
KAUAI-NIIHAU-

CITY           SKY/WX    TMP DP  RH WIND       PRES   REMARKS
LIHUE APT      CLEAR     70  65  84 W8        30.03S
PORT ALLEN*      N/A     68 N/A N/A NE9         N/A
POIPU*           N/A     66 N/A N/A N3          N/A
PRINCEVILLE*     N/A     66 N/A N/A S3          N/A
KOKOLE POINT*  NOT AVBL
MOLOAA DAIRY*    N/A     68  64  88 CALM        N/A
WAIMEA HTS*      N/A     72  55  56 VRB6        N/A
PUU OPAE*      NOT AVBL
PUU LUA*       NOT AVBL
MAKAHA RIDGE*    N/A     64  63  94 E1          N/A
$$

HIZ005>011-291600-
OAHU-

CITY           SKY/WX    TMP DP  RH WIND       PRES   REMARKS
HONOLULU       PTCLDY    70  66  87 CALM      30.02R
KALAELOA       CLEAR     70  64  81 NE3       30.03S
KANEOHE MCB    PTCLDY    74  71  91 CALM      29.99S
WHEELER FIELD  FAIR      64  63  96 CALM      30.02S
BELLOWS*         N/A    N/A N/A N/A W3          N/A
KAHUKU*          N/A    N/A N/A N/A NE2         N/A
WHEELER*         N/A    N/A N/A N/A N3          N/A
WAIANAE HARBOR   N/A    N/A N/A N/A NE3         N/A
DILLINGHAM*      N/A     91  90  94 CALM        N/A  HX 133
KAHUKU TRN*      N/A     68  66  94 CALM        N/A
KAWAILOA*        N/A     66  63  88 SE3         N/A
KII*             N/A     70  64  83 SE2         N/A
MAKUA RANGE*     N/A     70  64  83 W8          N/A
OAHU FOREST NW   N/A     68  61  77 CALM        N/A
SCHOFIELD BRK*   N/A     66  66 100 MISG        N/A
SCHOFIELD S*   NOT AVBL
WAIANAE VLY*     N/A     66  63  88 NW6         N/A
KUAOKALA*        N/A     72  63  73 SE1         N/A
HONOULIUULI*   NOT AVBL
MOKUOLOE IS*   NOT AVBL
PALEHUA*         N/A    N/A N/A N/A E2          N/A
WAIAWA PHB*    NOT AVBL
$$

HIZ012>013-291600-
MOLOKAI-

CITY           SKY/WX    TMP DP  RH WIND       PRES   REMARKS
MOLOKAI AIRPT  CLEAR     66  64  93 CALM      30.04R
KALAUPAPA      NOT AVBL
MAKAPULAPAI*     N/A     68  63  83 S3          N/A
MOLOKAI 1*     NOT AVBL
PUU ALII*        N/A     56  56  99 CALM        N/A
$$

HIZ016-291600-
KAHOOLAWE-

CITY           SKY/WX    TMP DP  RH WIND       PRES   REMARKS
KAHOOLAWE*     NOT AVBL
HAKIOAWA*        N/A     66  65  95 NW1       30.44F
HONOKANAIA*      N/A     73  66  79 VRB5      29.96R
KANELOA*         N/A     70  66  88 NE6       30.08R
KEALIALALO*    NOT AVBL
LUA MAKIKA*    NOT AVBL
$$

HIZ014>015-291600-
LANAI-

CITY           SKY/WX    TMP DP  RH WIND       PRES   REMARKS
LANAI CITY     FAIR      65  64  97 NE3       30.08S
LANAI 1*       NOT AVBL
$$

HIZ017>028-291600-
MAUI-

CITY           SKY/WX    TMP DP  RH WIND       PRES   REMARKS
KAHULUI        CLEAR     66  63  90 SE7       30.01F
KAPALUA-W MAUI NOT AVBL
HANA AIRPORT   MOCLDY    66  66 100 S2        30.05R FOG
HANA*            N/A     68 N/A N/A S3          N/A
HALEAKALA SUMM   N/A     43  16  33 SW8         N/A
MAALAEA BAY*     N/A     66 N/A N/A N3          N/A
HALEAKALA*     NOT AVBL
KAUPO GAP*     NOT AVBL
KULA 1*          N/A    N/A N/A N/A E3          N/A
$$

HIZ023>026-291600-
BIG ISLAND OF HAWAII COAST AND LOWER SLOPES-

CITY           SKY/WX    TMP DP  RH WIND       PRES   REMARKS
KAILUA KONA    CLEAR     74  63  68 E6        30.00S
HILO           CLEAR     68  64  87 SW5       30.02S
HONOKAA*         N/A     64 N/A N/A VRB1        N/A
KAWAIHAE MWT*    N/A     75 N/A N/A E6          N/A
KAWAIHAE*        N/A     75 N/A N/A E1        30.01S
SOUTH POINT*     N/A     68 N/A N/A NW9         N/A
UPOLU AIRPORT* NOT AVBL
KAMUELA*       NOT AVBL
HAKALAU*         N/A     48  46  93 SW6G12      N/A
KALOKO-HONOKO*   N/A     72  63  73 NE6         N/A
PALI 2*          N/A     63  63 100 S6          N/A
KEALAKOMO*       N/A     72  68  88 NW2         N/A
KAUPULEHU*       N/A     66  57  72 SE6         N/A
KAPAPALA*        N/A     66  66 100 NW3         N/A
LOWER KAHUKU*    N/A     61  59  94 VRB2G8      N/A
PUHE CS*         N/A     73  57  56 E6G13       N/A
PUHO CS*         N/A     71  57  61 E3          N/A
PTA KEAMUKU*     N/A     55  46  71 CALM        N/A
WAIKOLOA*        N/A     66  52  59 SE7G13      N/A
$$

HIZ027>028-291600-
BIG ISLAND OF HAWAII INTERIOR AND SUMMMITS-

CITY           SKY/WX    TMP DP  RH WIND       PRES   REMARKS
BRADSHAW FIELD CLOUDY    46  24  43 SE6       30.33S
MK VISITOR CEN   N/A     45  16  31 N3          N/A
MAUNA KEA*       N/A     30   3  31 SW26        N/A  WCI  16
MAUNA LOA*       N/A     39   5  24 MISG        N/A
MAUNA LOA 1*   NOT AVBL
PTA KIPUKA*      N/A     72  54  53 E3          N/A
PTA RANGE 17*    N/A     50  41  71 E6          N/A
PTA WEST*        N/A     72  66  83 SE10        N/A
NENE CABIN*      N/A    N/A N/A N/A N7          N/A
AHUMOA*          N/A    N/A N/A N/A E5          N/A
PTA PORTABLE*  NOT AVBL
PUU MALI*        N/A    N/A N/A N/A E3G9        N/A
$$

HIC003-291600-
NORTHWEST ISLANDS-

CITY           SKY/WX    TMP DP  RH WIND       PRES   REMARKS
MIDWAY ISLAND  MOCLDY    66  59  77 E3        30.08S
MIDWAY NOS*      N/A     70 N/A N/A MISG      30.06S
FRENCH FRIGATE NOT AVBL
$$

PHZ110>124-180-291600-
BUOY REPORTS

STATION/POSITION TIME  TEMP    WIND        PRES    WAVE   SWELL
                       AIR SEA DIR/SP/G            HT/PER HT/DIR
                 (UTC) (F)     (DEG/KT/KT) (MB)    (FT/S) (FT/D)
BUOY 51001       1520   74 76  220/  2/  4 1016.5
BUOY 51101       1450   75 76  230/  2/  4 1017.0R   5/12   5/160
BUOY 51100       NOT AVBL
BUOY 51002       1520   76 78   90/ 12/ 14 1015.1
BUOY 51003       1450   78 80   80/ 12/ 14 1015.5R   5/14   5/150
BUOY 51004       1450      78  100/ 10/ 12 1016.2F   6/13   5/150
BARBERS PT BUOY  NOT AVBL
WAIMEA BAY BUOY  1502      78                N/A     3/11   2/ 20
KAILUA BAY BUOY  1504      79                N/A     4/11   3/ 50
LANAI BUOY       NOT AVBL
BARBERS PT 2     NOT AVBL
PAUWELA MAUI     1509      79                N/A     4/11   2/ 40
HILO             NOT AVBL
KANEOHE BAY BUOY 1525      79                N/A     4/11   2/ 50
HANALEI KAUAI    1522      80                N/A     4/11   2/ 50
KAHULUI HARBOR   1512   69 80  150/  3/  4 1016.5
HONOLULU HARBOR  1512   73 79   CALM  /  2 1017.4
KILO NALU        NOT AVBL
HILO HARBOR      1512   69 78  190/  2/  4 1016.2
MOKUOLOE         1436   74 81  210/  1/  3 1016.5R
NAWILIWILI       1512   67 80  270/  4/  5 1016.7
WHOTS BUOY       NOT AVBL
BUOY 51028       NOT AVBL
$$

......................KEY........................................
  SKY/WX - SKY CONDITIONS/PRESENT WEATHER
  TMP    - TEMPERATURE IN FAHRENHEIT
  DWPT   - DEWPOINT IN FAHRENHEIT
  RH     - RELATIVE HUMIDITY IN PERCENT
  WIND   - DIRECTION AND SPEED /MPH FOR ISLANDS...KTS FOR BUOYS/
  PRES   - MEAN SEA LEVEL PRESSURE IN INCHES OF HG
  VSB    - VISIBILITY IN MILES
  HX     - HEAT INDEX
  WCI    - WIND CHILL INDEX
  VRB    - VARIABLE WIND DIRECTION
  N/A    - NOT AVAILABLE




USA.gov is the U.S. government's official web portal to all federal, state and local government web resources and services.